Skip Page Navigation
NASA JPL Caltech
NASA Logo - Jet Propulsion Laboratory + View the NASA Portal
+ Near-Earth Object (NEO) Program
Search JPL
JPL Home Earth Solar System Stars & Galaxies Technology
JPL Solar System Dynamics
BODIES ORBITS EPHEMERIDES TOOLS PHYSICAL DATA DISCOVERY FAQ SITE MAP
JPL Small-Body Database Browser
Search: [ help ]  
23779 Cambier (1998 QL10)
Classification: Main-belt Asteroid          SPK-ID: 2023779
Ephemeris | Orbit Diagram | Orbital Elements | Physical Parameters | Discovery Circumstances | Close-Approach Data ]

[ show orbit diagram ]
Orbital Elements at Epoch 2457000.5 (2014-Dec-09.0) TDB
Reference: JPL 13 (heliocentric ecliptic J2000)
 Element Value Uncertainty (1-sigma)   Units 
e .1884668174368514 6.846e-08  
a 2.597760045388454 2.6257e-08 AU
q 2.108168477169482 1.8877e-07 AU
i 3.793058793342912 7.3591e-06 deg
node 163.04673590 0.00011336 deg
peri 107.1811944380625 0.00011647 deg
M 354.3045036758766 2.7827e-05 deg
tp 2457024.695023671272
(2015-Jan-02.19502367)
0.00011843 JED
period 1529.315098451664
4.19
2.3186e-05
6.348e-08
d
yr
n .2353994937763169 3.5689e-09 deg/d
Q 3.087351613607427 3.1205e-08 AU
  Orbit Determination Parameters
   # obs. used (total)      642  
   data-arc span      7593 days (20.79 yr)  
   first obs. used      1994-09-05  
   last obs. used      2015-06-20  
   planetary ephem.      DE431  
   SB-pert. ephem.      SB431-BIG16  
   condition code      0  
   fit RMS      .55749  
   data source      ORB  
   producer      Otto Matic  
   solution date      2015-Jul-06 12:33:48  

Additional Information
 Earth MOID = 1.09735 AU 
 T_jup = 3.388 
[ show covariance matrix ]

Ephemeris | Orbit Diagram | Orbital Elements | Physical Parameters | Discovery Circumstances | Close-Approach Data ]

Physical Parameter Table
Parameter Symbol Value Units Sigma Reference Notes
absolute magnitude H 14.8 mag n/a MPO302208  

23779 Cambier           Discovered 1998 Aug. 17 by the Lincoln Laboratory Near-Earth Asteroid Research Team at Socorro.
Colleen Siobahn Cambier (b. 1993) is a finalist in the 2007 Discovery Channel Young Scientist Challenge (DCYSC), a middle school science competition, for her biochem, medicine, health, and microbiology project. She attends the St. Paul's School, Clearwater, Florida.
NOTE: some special characters may not display properly (any characters within {} are an attempt to place the proper accent above a character)
Reference: 20071026/MPCPages.arcLast Updated: 2007-10-28

[ show close-approach data ]
Alternate Designations
 1998 QL10 = 1994 RJ22 
Ephemeris | Orbit Diagram | Orbital Elements | Physical Parameters | Discovery Circumstances | Close-Approach Data ]
ABOUT SSD CREDITS/AWARDS PRIVACY/COPYRIGHT GLOSSARY LINKS
FirstGov 2015-Aug-01 09:47 UT
(server date/time)  
NASA Home Page
Site Manager:   Ryan S. Park
Webmaster  Alan B. Chamberlin